Regional Weather Roundup
Issued by NWS

Home | Current Version | Previous Version | Text Only | Print | Product List | Glossary On
Versions: 1 2 3 4 5 6 7 8 9 10 11 12 13 14 15 16 17 18 19 20 21 22 23 24 25 26 27 28 29 30 31 32 33 34 35 36 37 38 39 40 41 42 43 44 45 46 47 48 49 50
000
ASUS43 KTOP 241608
RWRKS

WEATHER ROUNDUP FOR KANSAS
NATIONAL WEATHER SERVICE GOODLAND KS
1000 AM CST FRI FEB 24 2017

NOTE:  "FAIR" INDICATES FEW OR NO CLOUDS BELOW 12,000 FEET WITH NO
SIGNIFICANT WEATHER AND/OR OBSTRUCTIONS TO VISIBILITY.

KSZ001>006-013>018-027>032-041>047-241700-
NORTHWEST KANSAS

CITY           SKY/WX    TMP DP  RH WIND       PRES   REMARKS
GOODLAND       CLOUDY    24  20  84 N20G30    29.95R WCI  10
HAYS           FLURRIES  29  22  75 N28G37    29.91R WCI  14
HILL CITY      LGT SNOW  28  25  88 N18G25    29.94R VSB 1   WCI  15
RUSSELL        LGT SNOW  28  24  85 N25G32    29.89R FOG     WCI  13
$$

KSZ061>065-074>080-084>089-241700-
SOUTHWEST KANSAS

CITY           SKY/WX    TMP DP  RH WIND       PRES   REMARKS
DODGE CITY     CLOUDY    30  18  60 NW24G35   29.92R WCI  16
ELKHART          N/A     27   8  44 NW18        N/A  WCI  14
GARDEN CITY    PTSUNNY   29  16  58 NW23      29.94R WCI  15
GREAT BEND     FLURRIES  30  23  75 NW22G29   29.90R WCI  17
LIBERAL        MOSUNNY   32  18  55 NW20G29   29.97R WCI  20
PRATT          CLOUDY    30  20  66 NW23G30   29.90R WCI  16
$$

KSZ066>073-081>083-090>101-241700-
SOUTHEAST KANSAS

CITY           SKY/WX    TMP DP  RH WIND       PRES   REMARKS
CHANUTE        CLOUDY    41  27  57 NW22G30   29.78R
COFFEYVILLE    PTSUNNY   42  29  59 NW23      29.80R
HUTCHINSON     CLOUDY    34  24  67 NW24G32   29.85R WCI  21
MEDICINE LODGE   N/A     34  20  56 NW21G33   29.90R WCI  22
NEWTON         CLOUDY    33  27  78 NW18G25   29.84R WCI  22
PARSONS        CLOUDY    41  29  62 NW17      29.80R
WICHITA INTL   CLOUDY    35  24  64 NW25G31   29.86R WCI  23
WICHITA JABRA  CLOUDY    34  24  67 NW28G35   29.84R WCI  21
WICHITA MCCONL PTSUNNY   35  22  60 NW21G30   29.85R WCI  24
WINFIELD       PTSUNNY   38  26  62 NW20G30   29.87R WCI  28
$$

KSZ007>012-019>026-033>040-048>060-102>105-241700-
NORTHEAST KANSAS

CITY           SKY/WX    TMP DP  RH WIND       PRES   REMARKS
CONCORDIA      FLURRIES  27  25  92 N21G30    29.85R WCI  13
EMPORIA        CLOUDY    36  27  69 W22G33    29.77R WCI  25
LAWRENCE       LGT RAIN  38  36  92 W16       29.71R FOG     WCI  29
MANHATTAN      CLOUDY    35  29  78 N12G21    29.79R WCI  27
MARYSVILLE     LGT SNOW  30  28  93 N16G26    29.79R WCI  19
OLATHE IND     CLOUDY    39  32  76 W20       29.69R WCI  29
OLATHE EXE     CLOUDY    37  35  92 W13G21    29.68R WCI  29
SALINA         CLOUDY    33  27  78 N22G32    29.86R WCI  21
TOPEKA BILLARD LGT RAIN  37  35  92 NW17G25   29.73R WCI  27
TOPEKA FORBES  CLOUDY    38  35  89 NW17      29.72R FOG     WCI  28
$$




USA.gov is the U.S. government's official web portal to all federal, state and local government web resources and services.